Weather History for Hilton Head Island, SC

Change the Weather History Date:

Sunday, September 29, 2013

  Actual Average Record
Temperature  
Mean Temperature 70 °F -  
Max Temperature 75 °F 81 °F 89 °F (1972)
Min Temperature 64 °F 64 °F 49 °F (1962)
Cooling Degree Days 4    
Growing Degree Days 20 (Base 50)    
Moisture  
Dew Point 61 °F    
Average Humidity 77    
Maximum Humidity 94    
Minimum Humidity 57    
Precipitation  
Precipitation 0.00 in - - ()
Sea Level Pressure  
Sea Level Pressure 30.07 in    
Wind  
Wind Speed 8 mph (North)    
Max Wind Speed 13 mph    
Max Gust Speed 17 mph    
Visibility 10 miles    
Events      
Averages and records for this station are not official NWS values.
T = Trace of Precipitation, MM = Missing Value Source: NWS Daily Summary

Daily Weather History Graph

Daily Weather History Graph

Search for Another Location

Airport:

Trip Planner

Search our weather history database for the weather conditions in past years. The results will help you decide how hot, cold, wet, or windy it might be!

Date:

Astronomy

Sep. 29, 2013 Rise Set
Actual Time 7:15 AM EDT 7:09 PM EDT
Civil Twilight 6:51 AM EDT 7:34 PM EDT
Nautical Twilight 6:22 AM EDT 8:02 PM EDT
Astronomical Twilight 5:54 AM EDT 8:31 PM EDT
Moon 2:11 AM EDT (9/29) 3:50 PM EDT (9/29)
Length of Visible Light 12h 43m
Length of Day
11h 54m
Waning Crescent, 27% of the Moon is Illuminated
Sep 29
Waning Crescent
Oct 4
New
Oct 11
First Quarter
Oct 18
Full
Oct 26
Last Quarter

Hourly Weather History & Observations

Time (EDT) Temp. Dew Point Humidity Pressure Visibility Wind Dir Wind Speed Gust Speed Precip Events Conditions
12:15 AM 69.8 °F 62.6 °F 78% 30.10 in 10.0 mi North 8.1 mph - 0.00 in   Partly Cloudy
12:35 AM 69.8 °F 62.6 °F 78% 30.10 in 10.0 mi North 8.1 mph - 0.00 in   Scattered Clouds
12:55 AM 69.8 °F 62.6 °F 78% 30.10 in 10.0 mi North 6.9 mph - 0.00 in   Scattered Clouds
1:15 AM 69.8 °F 62.6 °F 78% 30.10 in 10.0 mi North 9.2 mph - 0.00 in   Partly Cloudy
1:35 AM 69.8 °F 60.8 °F 73% 30.10 in 10.0 mi North 9.2 mph - 0.00 in   Partly Cloudy
1:55 AM 69.8 °F 60.8 °F 73% 30.10 in 10.0 mi North 10.4 mph 16.1 mph 0.00 in   Partly Cloudy
2:15 AM 69.8 °F 60.8 °F 73% 30.09 in 10.0 mi North 10.4 mph 17.3 mph 0.00 in   Scattered Clouds
2:35 AM 69.8 °F 59.0 °F 68% 30.09 in 10.0 mi North 10.4 mph - 0.00 in   Clear
2:55 AM 68.0 °F 59.0 °F 73% 30.08 in 10.0 mi North 9.2 mph - 0.00 in   Clear
3:15 AM 68.0 °F 59.0 °F 73% 30.07 in 10.0 mi North 9.2 mph 16.1 mph 0.00 in   Clear
3:35 AM 66.2 °F 60.8 °F 83% 30.07 in 10.0 mi North 10.4 mph - 0.00 in   Clear
3:55 AM 66.2 °F 60.8 °F 83% 30.07 in 10.0 mi North 9.2 mph - 0.00 in   Clear
4:15 AM 66.2 °F 60.8 °F 83% 30.07 in 10.0 mi North 10.4 mph - 0.00 in   Clear
4:35 AM 66.2 °F 62.6 °F 88% 30.07 in 10.0 mi North 12.7 mph 16.1 mph 0.00 in   Clear
4:55 AM 66.2 °F 62.6 °F 88% 30.07 in 10.0 mi North 9.2 mph - 0.00 in   Clear
5:15 AM 66.2 °F 62.6 °F 88% 30.07 in 10.0 mi North 9.2 mph 16.1 mph 0.00 in   Clear
5:35 AM 66.2 °F 62.6 °F 88% 30.07 in 10.0 mi North 8.1 mph - 0.00 in   Clear
5:55 AM 66.2 °F 62.6 °F 88% 30.08 in 10.0 mi North 9.2 mph - 0.00 in   Clear
6:15 AM 66.2 °F 62.6 °F 88% 30.08 in 10.0 mi North 11.5 mph 16.1 mph 0.00 in   Clear
6:35 AM 64.4 °F 62.6 °F 94% 30.09 in 10.0 mi North 8.1 mph - 0.00 in   Clear
6:50 AM 64.4 °F 60.8 °F 88% 30.08 in 10.0 mi North 9.2 mph - N/A   Clear
7:50 AM 64.4 °F 60.8 °F 88% 30.09 in 10.0 mi North 9.2 mph - N/A   Clear
8:55 AM 66.2 °F 60.8 °F 83% 30.10 in 10.0 mi North 9.2 mph - N/A   Clear
9:50 AM 68.0 °F 60.8 °F 78% 30.09 in 10.0 mi North 11.5 mph - N/A   Clear
10:50 AM 71.6 °F 59.0 °F 64% 30.11 in 10.0 mi North 11.5 mph - N/A   Partly Cloudy
11:50 AM 71.6 °F 57.2 °F 60% 30.11 in 10.0 mi North 11.5 mph - N/A   Partly Cloudy
12:50 PM 73.4 °F 59.0 °F 61% 30.08 in 10.0 mi NE 8.1 mph - N/A   Partly Cloudy
1:50 PM 75.2 °F 60.8 °F 61% 30.06 in 10.0 mi ENE 8.1 mph - N/A   Partly Cloudy
2:50 PM 75.2 °F 60.8 °F 61% 30.04 in 10.0 mi East 6.9 mph - N/A   Partly Cloudy
3:50 PM 75.2 °F 59.0 °F 57% 30.03 in 10.0 mi ENE 8.1 mph - N/A   Partly Cloudy
4:50 PM 75.2 °F 60.8 °F 61% 30.03 in 10.0 mi ENE 4.6 mph - N/A   Partly Cloudy
5:50 PM 75.2 °F 60.8 °F 61% 30.02 in 10.0 mi NE 5.8 mph - N/A   Scattered Clouds
6:50 PM 71.6 °F 60.8 °F 69% 30.03 in 10.0 mi NE 4.6 mph - N/A   Scattered Clouds
7:50 PM 71.6 °F 60.8 °F 69% 30.04 in 10.0 mi NNE 6.9 mph - N/A   Scattered Clouds
9:15 PM 69.8 °F 60.8 °F 73% 30.05 in 10.0 mi North 4.6 mph - 0.00 in   Clear
9:35 PM 68.0 °F 60.8 °F 78% 30.05 in 10.0 mi North 4.6 mph - 0.00 in   Clear
9:55 PM 68.0 °F 60.8 °F 78% 30.05 in 10.0 mi North 3.5 mph - 0.00 in   Clear
10:15 PM 68.0 °F 60.8 °F 78% 30.05 in 10.0 mi North 4.6 mph - 0.00 in   Clear
10:35 PM 66.2 °F 60.8 °F 83% 30.06 in 10.0 mi North 3.5 mph - 0.00 in   Clear
10:55 PM 66.2 °F 60.8 °F 83% 30.06 in 10.0 mi North 3.5 mph - 0.00 in   Clear
11:15 PM 64.4 °F 60.8 °F 88% 30.06 in 10.0 mi North 3.5 mph - 0.00 in   Clear
11:35 PM 64.4 °F 59.0 °F 83% 30.05 in 10.0 mi Calm Calm - 0.00 in   Clear
11:55 PM 64.4 °F 57.2 °F 77% 30.05 in 10.0 mi Calm Calm - 0.00 in   Clear